Regional Weather Roundup
Issued by NWS

Home | Current Version | Previous Version | Text Only | Print | Product List | Glossary On
Versions: 1 2 3 4 5 6 7 8 9 10 11 12 13 14 15 16 17 18 19 20 21 22 23 24 25 26 27 28 29 30 31 32 33 34 35 36 37 38 39 40 41 42 43 44 45 46 47 48 49 50
000
ASUS43 KBIS 300420
RWRND

NORTH DAKOTA REGIONAL WEATHER ROUNDUP
NATIONAL WEATHER SERVICE BISMARCK ND
1100 PM CDT MON SEP 29 2014

NOTE: "FAIR" INDICATES FEW OR NO CLOUDS BELOW 12,000 FEET WITH NO
SIGNIFICANT WEATHER AND/OR OBSTRUCTIONS TO VISIBILITY.


NDZ001>003-009>011-017-300500-
NORTHWEST NORTH DAKOTA

CITY           SKY/WX    TMP DP  RH WIND       PRES   REMARKS
WILLISTON      CLOUDY    53  48  83 SE10      29.89F
MINOT          CLOUDY    52  46  80 E15G22    29.95F
MINOT AFB      CLOUDY    52  48  88 E14       29.95F
$$

NDZ018>021-031>035-040>046-300500-
SOUTHWEST NORTH DAKOTA

CITY           SKY/WX    TMP DP  RH WIND       PRES   REMARKS
BISMARCK       CLOUDY    55  48  77 E9        29.96F
DICKINSON      LGT RAIN  51  49  92 SE12      29.88F
GARRISON         N/A     53  48  83 SE17G24   29.95F
HETTINGER ARPT CLOUDY    52  50  93 E9        29.90F
$$

NDZ004>008-012>016-024-026-027-054-300500-
NORTHEAST NORTH DAKOTA

CITY           SKY/WX    TMP DP  RH WIND       PRES   REMARKS
GRAND FORKS    CLEAR     49  45  86 E8        30.05F
GRND FRKS AFB  CLEAR     46  46  99 SE8       30.06F
DEVILS LAKE    PTCLDY    46  41  81 E10       30.01F
$$

NDZ022-023-025-028>030-036>039-047>053-300500-
SOUTHEAST NORTH DAKOTA

CITY           SKY/WX    TMP DP  RH WIND       PRES   REMARKS
FARGO          CLEAR     51  45  79 SE10      30.05F
JAMESTOWN      PTCLDY    49  46  90 E7        30.01F
$$




USA.gov is the U.S. government's official web portal to all federal, state and local government web resources and services.